Location: Britannia Beach
(45.3521°N, 62.9901°W)
Time: 10:41:48
(UTC+00:00)

X-37B - Pass Details

Date: 07 August 2021
Orbit: 381 x 393 km, 45.0° (Epoch: 29 August)

Event Time Altitude Azimuth Distance (km) Brightness Sun altitude
Exits shadow 07:10:06 56° 242° (WSW) 457 0.5 -17.0°
Maximum altitude 07:10:38 77° 172° (S) 394 0.4 -16.9°
Drops below altitude 10° 07:13:47 10° 86° (E) 1,398 4.1 -16.6°
Sets 07:15:50 0° 85° (E) 2,252 5.3 -16.3°
